Location: Ljubljana
(46.0550°N, 14.5140°E)
Time: 11:05:32
(UTC+02:00)

ISS - Visible Passes

Search period start: 16 July 2018 00:00
Search period end: 26 July 2018 00:00
Orbit: 402 x 408 km, 51.6° (Epoch: 16 July)

Date Brightness Start Highest point End Pass type
(mag) Time Alt. Az. Time Alt. Az. Time Alt. Az.
16 Jul -2.3 00:59:18 31° NE 00:59:18 31° NE 01:01:11 10° ENE visible
16 Jul -1.9 02:31:55 11° WNW 02:34:43 31° N 02:37:43 10° ENE visible
16 Jul -2.2 04:08:39 10° WNW 04:11:45 37° NNE 04:14:51 10° E visible
17 Jul -1.3 00:08:36 14° ENE 00:08:36 14° ENE 00:09:06 10° ENE visible
17 Jul -2.2 01:41:13 25° WNW 01:42:31 35° NNW 01:45:36 10° ENE visible
17 Jul -1.9 03:16:32 10° WNW 03:19:32 31° N 03:22:33 10° ENE visible
18 Jul -2.8 00:50:13 45° NNW 00:50:18 45° NNW 00:53:30 10° ENE visible
18 Jul -1.8 02:24:21 10° WNW 02:27:17 29° N 02:30:15 10° ENE visible
18 Jul -3.0 04:00:58 10° WNW 04:04:13 55° NNE 04:07:28 10° E visible
18 Jul-0.722:25:47ENE22:25:47ENE22:17:27SSWvisible
18 Jul -3.5 23:58:12 65° NNW 23:58:12 65° NNW 00:01:26 10° ENE visible
19 Jul -1.8 01:32:04 10° WNW 01:35:02 30° N 01:37:59 10° ENE visible
19 Jul -2.4 03:08:53 10° WNW 03:12:02 40° NNE 03:15:10 10° E visible
19 Jul -3.6 04:45:24 10° WNW 04:48:36 48° SW 04:51:47 10° SE visible
19 Jul -2.0 21:28:26 10° SSE 21:30:01 13° SE 21:31:36 10° ESE visible
19 Jul -4.0 23:02:46 10° WSW 23:06:02 80° SSE 23:09:19 10° ENE visible
20 Jul -2.0 00:39:44 10° WNW 00:42:46 33° N 00:45:48 10° ENE visible
20 Jul -2.0 02:16:45 10° WNW 02:19:47 33° N 02:22:50 10° ENE visible
20 Jul -3.9 03:53:13 10° WNW 03:56:32 82° SSW 03:59:50 10° ESE visible
20 Jul -3.6 22:10:49 10° SW 22:13:58 47° SE 22:17:08 10° ENE visible
20 Jul -2.5 23:47:23 10° W 23:50:31 41° NNW 23:53:39 10° ENE visible
21 Jul -1.8 01:24:33 10° WNW 01:27:31 30° N 01:30:29 10° ENE visible
21 Jul -3.4 03:01:07 10° WNW 03:04:24 64° NNE 03:07:40 10° ESE visible
21 Jul -2.6 04:37:59 10° W 04:40:40 23° SW 04:43:20 10° SSE visible
21 Jul -2.8 21:19:08 10° SSW 21:21:58 27° SE 21:24:48 10° E visible
21 Jul -3.2 22:55:04 10° WSW 22:58:18 56° NNW 23:01:33 10° ENE visible
22 Jul -1.8 00:32:16 10° WNW 00:35:13 29° N 00:38:10 10° ENE visible
22 Jul -2.7 02:09:00 10° WNW 02:12:11 45° NNE 02:15:22 10° E visible
22 Jul -3.4 03:45:34 10° WNW 03:48:41 39° SW 03:51:46 10° SE visible
22 Jul -3.8 22:02:51 10° WSW 22:06:07 86° NNW 22:09:25 10° ENE visible
22 Jul -1.9 23:39:55 10° WNW 23:42:54 31° N 23:45:54 10° ENE visible
23 Jul -2.2 01:16:52 10° WNW 01:19:56 35° NNE 01:20:48 29° NE visible
23 Jul -2.3 22:47:30 10° W 22:50:36 37° NNW 22:53:42 10° NE visible
24 Jul -1.9 00:24:38 10° WNW 00:27:37 30° N 00:29:05 21° NE visible
24 Jul -1.2 02:01:09 10° WNW 02:01:40 14° WNW 02:01:40 14° WNW visible
24 Jul -2.8 21:55:08 10° W 21:58:20 49° NNW 22:01:33 10° ENE visible
24 Jul -1.8 23:32:21 10° WNW 23:35:17 29° N 23:38:04 11° ENE visible
25 Jul -1.8 01:09:01 10° WNW 01:10:41 26° NW 01:10:41 26° NW visible
25 Jul -1.9 22:39:58 10° WNW 22:42:56 30° N 22:45:54 10° ENE visible
